,,,PA_Meas_PMT16A,,PR_Meas_QMR101_102,,RH_Meas_QMH101,,SR_Meas_QMS101,,TA_Meas_QMH101,,GenWind,,GenWind,
date,time,status,PA,status,PR,status,RH,status,SR,status,TA,status,DirAvg,status,SpdAvg,
2008-10-01, 00:00:04,VALID,1009.49,VALID,0,VALID,94.8949,VALID,0.105969,VALID,24.1014,VALID,69,VALID,0,
2008-10-01, 00:01:04,VALID,1009.45,VALID,0,VALID,94.8949,VALID,0.105969,VALID,24.0996,VALID,69,VALID,0,
2008-10-01, 00:02:04,VALID,1009.48,VALID,0,VALID,94.872,VALID,0,VALID,24.0801,VALID,52,VALID,0.371875,
2008-10-01, 00:03:04,VALID,1009.49,VALID,0,VALID,94.872,VALID,0.105969,VALID,24.0801,VALID,105,VALID,0.662891,
2008-10-01, 00:04:04,VALID,1009.48,VALID,0,VALID,94.8491,VALID,0.105969,VALID,24.1014,VALID,87,VALID,0.507422,
2008-10-01, 00:05:04,VALID,1009.48,VALID,0,VALID,94.8339,VALID,0.105969,VALID,24.1404,VALID,88,VALID,0.456641,
2008-10-01, 00:06:04,VALID,1009.47,VALID,0,VALID,94.7729,VALID,0.105969,VALID,24.1599,VALID,90,VALID,0.835156,
2008-10-01, 00:07:04,VALID,1009.46,VALID,0,VALID,94.628,VALID,0,VALID,24.2202,VALID,79,VALID,0.539453,
2008-10-01, 00:08:04,VALID,1009.46,VALID,0,VALID,94.4983,VALID,0,VALID,24.2396,VALID,63,VALID,0.188672,
2008-10-01, 00:09:04,VALID,1009.45,VALID,0,VALID,94.3611,VALID,0,VALID,24.2396,VALID,81,VALID,0.284766,
2008-10-01, 00:10:04,VALID,1009.43,VALID,0,VALID,94.2086,VALID,0,VALID,24.2591,VALID,101,VALID,0.562109,
2008-10-01, 00:11:04,VALID,1009.4,VALID,0,VALID,94.0637,VALID,0,VALID,24.2981,VALID,81,VALID,0.475781,
2008-10-01, 00:12:04,VALID,1009.4,VALID,0,VALID,93.934,VALID,0,VALID,24.2981,VALID,74,VALID,0.679297,
2008-10-01, 00:13:04,VALID,1009.38,VALID,0,VALID,93.8349,VALID,0,VALID,24.2768,VALID,77,VALID,0.222266,
2008-10-01, 00:14:04,VALID,1009.4,VALID,0,VALID,93.751,VALID,0,VALID,24.2981,VALID,77,VALID,0.314844,
2008-10-01, 00:15:04,VALID,1009.37,VALID,0,VALID,93.6976,VALID,0,VALID,24.2786,VALID,77,VALID,0.278516,
2008-10-01, 00:16:04,VALID,1009.41,VALID,0,VALID,93.6748,VALID,0,VALID,24.2786,VALID,77,VALID,0.294531,
2008-10-01, 00:17:04,VALID,1009.38,VALID,0,VALID,93.6442,VALID,0,VALID,24.2591,VALID,72,VALID,0.330078,
2008-10-01, 00:18:04,VALID,1009.4,VALID,0,VALID,93.6137,VALID,0,VALID,24.2981,VALID,59,VALID,0.371875,
2008-10-01, 00:19:04,VALID,1009.39,VALID,0,VALID,93.6137,VALID,0,VALID,24.2396,VALID,39,VALID,0.558203,
2008-10-01, 00:20:04,VALID,1009.38,VALID,0,VALID,93.6137,VALID,0,VALID,24.2202,VALID,22,VALID,0.405469,
2008-10-01, 00:21:04,VALID,1009.36,VALID,0,VALID,93.568,VALID,0,VALID,24.2007,VALID,22,VALID,0.352344,
2008-10-01, 00:22:04,VALID,1009.35,VALID,0,VALID,93.5756,VALID,0,VALID,24.1209,VALID,20,VALID,0.489844,
2008-10-01, 00:23:04,VALID,1009.33,VALID,0,VALID,93.6061,VALID,0,VALID,24.1617,VALID,20,VALID,0.367578,
2008-10-01, 00:24:04,VALID,1009.31,VALID,0,VALID,93.6748,VALID,0,VALID,24.1422,VALID,20,VALID,0.248047,
2008-10-01, 00:25:04,VALID,1009.3,VALID,0,VALID,93.6824,VALID,0,VALID,24.1032,VALID,19,VALID,0.472266,
2008-10-01, 00:26:04,VALID,1009.24,VALID,0,VALID,93.7281,VALID,0,VALID,24.0837,VALID,19,VALID,0.232422,
2008-10-01, 00:27:04,VALID,1009.27,VALID,0,VALID,93.7663,VALID,0,VALID,24.0643,VALID,19,VALID,0.219141,
2008-10-01, 00:28:04,VALID,1009.26,VALID,0,VALID,93.8502,VALID,0,VALID,24.0448,VALID,19,VALID,0.163281,
2008-10-01, 00:29:04,VALID,1009.22,VALID,0,VALID,93.9569,VALID,0,VALID,24.0058,VALID,19,VALID,0.21875,
2008-10-01, 00:30:04,VALID,1009.23,VALID,0,VALID,94.0255,VALID,0,VALID,24.0253,VALID,20,VALID,0.135156,
2008-10-01, 00:31:04,VALID,1009.23,VALID,0,VALID,94.1018,VALID,0,VALID,24.004,VALID,20,VALID,0,
2008-10-01, 00:32:04,VALID,1009.2,VALID,0,VALID,94.1704,VALID,0,VALID,24.0253,VALID,20,VALID,0,
2008-10-01, 00:33:04,VALID,1009.2,VALID,0,VALID,94.2162,VALID,0,VALID,23.965,VALID,20,VALID,0,
2008-10-01, 00:34:04,VALID,1009.19,VALID,0,VALID,94.2467,VALID,0,VALID,23.9863,VALID,20,VALID,0,
2008-10-01, 00:35:04,VALID,1009.17,VALID,0,VALID,94.2696,VALID,0,VALID,23.9863,VALID,20,VALID,0,
2008-10-01, 00:36:04,VALID,1009.15,VALID,0,VALID,94.2848,VALID,0,VALID,23.9863,VALID,20,VALID,0,
2008-10-01, 00:37:04,VALID,1009.14,VALID,0,VALID,94.3153,VALID,0,VALID,23.9455,VALID,20,VALID,0.0660156,
2008-10-01, 00:38:04,VALID,1009.12,VALID,0,VALID,94.3534,VALID,0,VALID,23.9863,VALID,20,VALID,0,
2008-10-01, 00:39:04,VALID,1009.11,VALID,0,VALID,94.3916,VALID,0,VALID,23.9668,VALID,20,VALID,0,
2008-10-01, 00:40:04,VALID,1009.08,VALID,0,VALID,94.4145,VALID,0,VALID,23.9845,VALID,20,VALID,0.0273438,
2008-10-01, 00:41:04,VALID,1009.08,VALID,0,VALID,94.4221,VALID,0,VALID,24.0058,VALID,20,VALID,0.192969,
2008-10-01, 00:42:04,VALID,1009.08,VALID,0,VALID,94.445,VALID,0,VALID,24.0429,VALID,26,VALID,0.376172,
2008-10-01, 00:43:04,VALID,1009.06,VALID,0,VALID,94.4983,VALID,0,VALID,24.0429,VALID,56,VALID,0.133984,
2008-10-01, 00:44:04,VALID,1009.07,VALID,0,VALID,94.5136,VALID,0,VALID,24.0643,VALID,56,VALID,0.11875,
2008-10-01, 00:45:04,VALID,1009.07,VALID,0,VALID,94.5746,VALID,0,VALID,24.1032,VALID,56,VALID,0,
2008-10-01, 00:46:04,VALID,1009.08,VALID,0,VALID,94.567,VALID,0,VALID,24.0837,VALID,56,VALID,0,
2008-10-01, 00:47:04,VALID,1009.1,VALID,0,VALID,94.5593,VALID,0,VALID,24.0624,VALID,56,VALID,0.00507812,
2008-10-01, 00:48:04,VALID,1009.07,VALID,0,VALID,94.5212,VALID,0,VALID,24.0429,VALID,106,VALID,0.155078,
2008-10-01, 00:49:04,VALID,1009.07,VALID,0,VALID,94.4526,VALID,0,VALID,24.0643,VALID,106,VALID,0,
2008-10-01, 00:50:04,VALID,1009.07,VALID,0,VALID,94.3611,VALID,0,VALID,24.0643,VALID,106,VALID,0,
2008-10-01, 00:51:04,VALID,1009.06,VALID,0,VALID,94.3611,VALID,0,VALID,24.0429,VALID,106,VALID,0.0183594,
2008-10-01, 00:52:04,VALID,1009.04,VALID,0,VALID,94.2696,VALID,0,VALID,24.0643,VALID,11,VALID,0.484375,
2008-10-01, 00:53:04,VALID,1009.09,VALID,0,VALID,94.1476,VALID,0,VALID,24.0643,VALID,11,VALID,0.498828,
2008-10-01, 00:54:04,VALID,1009.08,VALID,0,VALID,94.0332,VALID,0,VALID,24.004,VALID,12,VALID,0.442969,
2008-10-01, 00:55:04,VALID,1009.1,VALID,0,VALID,93.9645,VALID,0,VALID,24.0058,VALID,13,VALID,0.514844,
2008-10-01, 00:56:04,VALID,1009.09,VALID,0,VALID,93.9722,VALID,0,VALID,24.0058,VALID,17,VALID,0.537109,
2008-10-01, 00:57:04,VALID,1009.12,VALID,0,VALID,93.9569,VALID,0,VALID,23.9863,VALID,17,VALID,0.442969,
2008-10-01, 00:58:04,VALID,1009.14,VALID,0,VALID,93.9722,VALID,0,VALID,23.9065,VALID,17,VALID,0.685156,
2008-10-01, 00:59:04,VALID,1009.12,VALID,0,VALID,93.995,VALID,0,VALID,23.9278,VALID,24,VALID,0.367578,
2008-10-01, 01:00:04,VALID,1009.12,VALID,0,VALID,93.9722,VALID,0,VALID,23.9084,VALID,19,VALID,0.254297,
2008-10-01, 01:01:04,VALID,1009.08,VALID,0,VALID,93.995,VALID,0,VALID,23.8676,VALID,19,VALID,0.129688,
2008-10-01, 01:02:04,VALID,1009.08,VALID,0,VALID,94.056,VALID,0,VALID,23.8694,VALID,19,VALID,0.147266,
2008-10-01, 01:03:04,VALID,1009.09,VALID,0,VALID,94.1247,VALID,0,VALID,23.8499,VALID,19,VALID,0.104297,
2008-10-01, 01:04:04,VALID,1009.09,VALID,0,VALID,94.2086,VALID,0,VALID,23.8304,VALID,19,VALID,0,
2008-10-01, 01:05:04,VALID,1009.07,VALID,0,VALID,94.2696,VALID,0,VALID,23.8109,VALID,19,VALID,0,
2008-10-01, 01:06:04,VALID,1009.06,VALID,0,VALID,94.3534,VALID,0,VALID,23.7914,VALID,19,VALID,0,
2008-10-01, 01:07:04,VALID,1009.05,VALID,0,VALID,94.3916,VALID,0.105969,VALID,23.7701,VALID,19,VALID,0,
2008-10-01, 01:08:04,VALID,1009.05,VALID,0,VALID,94.445,VALID,0.105969,VALID,23.7294,VALID,19,VALID,0,
2008-10-01, 01:09:04,VALID,1009.08,VALID,0,VALID,94.5136,VALID,0.105969,VALID,23.7507,VALID,19,VALID,0,
2008-10-01, 01:10:04,VALID,1009.1,VALID,0,VALID,94.5441,VALID,0.105969,VALID,23.6904,VALID,19,VALID,0,
2008-10-01, 01:11:04,VALID,1009.1,VALID,0,VALID,94.5975,VALID,0.105969,VALID,23.6709,VALID,19,VALID,0,
2008-10-01, 01:12:04,VALID,1009.13,VALID,0,VALID,94.6508,VALID,0.105969,VALID,23.6904,VALID,6,VALID,0.0152344,
2008-10-01, 01:13:04,VALID,1009.11,VALID,0,VALID,94.689,VALID,0.105969,VALID,23.6515,VALID,337,VALID,0.116016,
2008-10-01, 01:14:04,VALID,1009.1,VALID,0,VALID,94.7042,VALID,0.105969,VALID,23.6515,VALID,337,VALID,0,
2008-10-01, 01:15:04,VALID,1009.06,VALID,0,VALID,94.75,VALID,0.105969,VALID,23.6515,VALID,22,VALID,0.295703,
2008-10-01, 01:16:04,VALID,1009.02,VALID,0,VALID,94.7805,VALID,0.105969,VALID,23.6727,VALID,22,VALID,0,
2008-10-01, 01:17:04,VALID,1009.02,VALID,0,VALID,94.8262,VALID,0.105969,VALID,23.632,VALID,23,VALID,0.0914062,
2008-10-01, 01:18:04,VALID,1009,VALID,0,VALID,94.8491,VALID,0.105969,VALID,23.632,VALID,29,VALID,0.435937,
2008-10-01, 01:19:04,VALID,1008.99,VALID,0,VALID,94.8644,VALID,0.211938,VALID,23.6515,VALID,37,VALID,0.216406,
2008-10-01, 01:20:04,VALID,1008.98,VALID,0,VALID,94.9101,VALID,0.105969,VALID,23.6727,VALID,37,VALID,0.11875,
2008-10-01, 01:21:04,VALID,1008.95,VALID,0,VALID,94.9483,VALID,0.105969,VALID,23.6727,VALID,37,VALID,0.0796875,
2008-10-01, 01:22:04,VALID,1008.91,VALID,0,VALID,94.9711,VALID,0,VALID,23.6922,VALID,37,VALID,0.0222656,
2008-10-01, 01:23:04,VALID,1008.93,VALID,0,VALID,94.9788,VALID,0.105969,VALID,23.6922,VALID,37,VALID,0.194141,
2008-10-01, 01:24:04,VALID,1008.92,VALID,0,VALID,94.9711,VALID,0,VALID,23.6745,VALID,38,VALID,0,
2008-10-01, 01:25:04,VALID,1008.92,VALID,0,VALID,94.994,VALID,0,VALID,23.6727,VALID,38,VALID,0.00078125,
2008-10-01, 01:26:04,VALID,1008.92,VALID,0,VALID,94.9788,VALID,0,VALID,23.6532,VALID,38,VALID,0.225,
2008-10-01, 01:27:04,VALID,1008.92,VALID,0,VALID,95.0093,VALID,0.105969,VALID,23.6727,VALID,37,VALID,0.233594,
2008-10-01, 01:28:04,VALID,1008.95,VALID,0,VALID,95.0245,VALID,0,VALID,23.6532,VALID,341,VALID,0.403516,
2008-10-01, 01:29:04,VALID,1008.94,VALID,0,VALID,95.0169,VALID,0,VALID,23.694,VALID,298,VALID,0.487891,
2008-10-01, 01:30:04,VALID,1008.94,VALID,0,VALID,95.0321,VALID,0,VALID,23.694,VALID,290,VALID,0.233594,
2008-10-01, 01:31:04,VALID,1008.93,VALID,0,VALID,95.0398,VALID,0,VALID,23.6922,VALID,290,VALID,0.328906,
2008-10-01, 01:32:04,VALID,1008.89,VALID,0,VALID,95.0321,VALID,0,VALID,23.694,VALID,313,VALID,0.359375,
2008-10-01, 01:33:04,VALID,1008.87,VALID,0,VALID,95.0245,VALID,0,VALID,23.7117,VALID,303,VALID,0.261719,
2008-10-01, 01:34:04,VALID,1008.89,VALID,0,VALID,95.0398,VALID,0,VALID,23.772,VALID,303,VALID,0.267969,
2008-10-01, 01:35:04,VALID,1008.85,VALID,0,VALID,95.055,VALID,0,VALID,23.7525,VALID,303,VALID,0.35625,
2008-10-01, 01:36:04,VALID,1008.86,VALID,0,VALID,95.055,VALID,0,VALID,23.7525,VALID,303,VALID,0.227344,
2008-10-01, 01:37:04,VALID,1008.8,VALID,0,VALID,95.0398,VALID,0.105969,VALID,23.7507,VALID,303,VALID,0.171875,
2008-10-01, 01:38:04,VALID,1008.8,VALID,0,VALID,95.0398,VALID,0.105969,VALID,23.7701,VALID,303,VALID,0.149609,
2008-10-01, 01:39:04,VALID,1008.77,VALID,0,VALID,95.0321,VALID,0.105969,VALID,23.7507,VALID,303,VALID,0.208203,
2008-10-01, 01:40:04,VALID,1008.77,VALID,0,VALID,95.0169,VALID,0,VALID,23.7507,VALID,303,VALID,0.217187,
2008-10-01, 01:41:04,VALID,1008.76,VALID,0,VALID,94.994,VALID,0.105969,VALID,23.7312,VALID,303,VALID,0.202734,
2008-10-01, 01:42:04,VALID,1008.75,VALID,0,VALID,94.9864,VALID,0.105969,VALID,23.7507,VALID,303,VALID,0,
2008-10-01, 01:43:04,VALID,1008.74,VALID,0,VALID,95.0093,VALID,0,VALID,23.7507,VALID,303,VALID,0,
2008-10-01, 01:44:04,VALID,1008.75,VALID,0,VALID,95.0169,VALID,0.105969,VALID,23.7701,VALID,303,VALID,0,
2008-10-01, 01:45:04,VALID,1008.76,VALID,0,VALID,95.0093,VALID,0.105969,VALID,23.7701,VALID,303,VALID,0.121094,
2008-10-01, 01:46:04,VALID,1008.71,VALID,0,VALID,95.0169,VALID,0.105969,VALID,23.7701,VALID,303,VALID,0,
2008-10-01, 01:47:04,VALID,1008.7,VALID,0,VALID,95.0321,VALID,0,VALID,23.7507,VALID,303,VALID,0.223438,
2008-10-01, 01:48:04,VALID,1008.71,VALID,0,VALID,94.994,VALID,0.105969,VALID,23.7312,VALID,303,VALID,0.389453,
2008-10-01, 01:49:04,VALID,1008.72,VALID,0,VALID,95.0093,VALID,0,VALID,23.7507,VALID,311,VALID,0.254687,
2008-10-01, 01:50:04,VALID,1008.71,VALID,0,VALID,95.0245,VALID,0,VALID,23.7312,VALID,311,VALID,0.300391,
2008-10-01, 01:51:04,VALID,1008.72,VALID,0,VALID,95.0093,VALID,0.105969,VALID,23.7312,VALID,311,VALID,0.270703,
2008-10-01, 01:52:04,VALID,1008.7,VALID,0,VALID,95.0245,VALID,0.105969,VALID,23.7312,VALID,311,VALID,0.151562,
2008-10-01, 01:53:04,VALID,1008.71,VALID,0,VALID,95.0016,VALID,0.105969,VALID,23.7312,VALID,311,VALID,0,
2008-10-01, 01:54:04,VALID,1008.69,VALID,0,VALID,95.0016,VALID,0,VALID,23.7507,VALID,311,VALID,0,
2008-10-01, 01:55:04,VALID,1008.68,VALID,0,VALID,95.0169,VALID,0,VALID,23.7312,VALID,311,VALID,0,
2008-10-01, 01:56:04,VALID,1008.69,VALID,0,VALID,95.0169,VALID,0.105969,VALID,23.7896,VALID,311,VALID,0,
2008-10-01, 01:57:04,VALID,1008.7,VALID,0,VALID,95.0245,VALID,0.105969,VALID,23.7507,VALID,311,VALID,0,
2008-10-01, 01:58:04,VALID,1008.7,VALID,0,VALID,95.0093,VALID,0,VALID,23.7507,VALID,311,VALID,0,
2008-10-01, 01:59:04,VALID,1008.7,VALID,0,VALID,95.0321,VALID,0.105969,VALID,23.7312,VALID,311,VALID,0.00742187,
2008-10-01, 02:00:04,VALID,1008.7,VALID,0,VALID,95.0321,VALID,0.105969,VALID,23.7507,VALID,311,VALID,0,
2008-10-01, 02:01:04,VALID,1008.7,VALID,0,VALID,95.0398,VALID,0.105969,VALID,23.7507,VALID,311,VALID,0,
2008-10-01, 02:02:04,VALID,1008.69,VALID,0,VALID,95.0245,VALID,0,VALID,23.7507,VALID,311,VALID,0.0867188,
2008-10-01, 02:03:04,VALID,1008.69,VALID,0,VALID,95.0245,VALID,0.105969,VALID,23.7701,VALID,311,VALID,0.326172,
2008-10-01, 02:04:04,VALID,1008.69,VALID,0,VALID,94.994,VALID,0.105969,VALID,23.7312,VALID,11,VALID,0.483594,
2008-10-01, 02:05:04,VALID,1008.71,VALID,0,VALID,94.994,VALID,0.105969,VALID,23.7312,VALID,23,VALID,0.576563,
2008-10-01, 02:06:04,VALID,1008.69,VALID,0,VALID,94.9788,VALID,0.105969,VALID,23.7117,VALID,24,VALID,0.460938,
2008-10-01, 02:07:04,VALID,1008.71,VALID,0,VALID,95.0016,VALID,0.105969,VALID,23.6922,VALID,24,VALID,0.311719,
2008-10-01, 02:08:04,VALID,1008.72,VALID,0,VALID,94.9864,VALID,0,VALID,23.6727,VALID,24,VALID,0.330469,
2008-10-01, 02:09:04,VALID,1008.74,VALID,0,VALID,94.9864,VALID,0.105969,VALID,23.6922,VALID,24,VALID,0.112109,
2008-10-01, 02:10:04,VALID,1008.74,VALID,0,VALID,95.0016,VALID,0.105969,VALID,23.6727,VALID,24,VALID,0,
2008-10-01, 02:11:04,VALID,1008.74,VALID,0,VALID,95.0398,VALID,0.105969,VALID,23.6727,VALID,24,VALID,0,
2008-10-01, 02:12:04,VALID,1008.73,VALID,0,VALID,95.0474,VALID,0,VALID,23.6532,VALID,24,VALID,0,
2008-10-01, 02:13:04,VALID,1008.72,VALID,0,VALID,95.0779,VALID,0,VALID,23.6338,VALID,24,VALID,0,
2008-10-01, 02:14:04,VALID,1008.71,VALID,0,VALID,95.0626,VALID,0.105969,VALID,23.6727,VALID,24,VALID,0,
2008-10-01, 02:15:04,VALID,1008.72,VALID,0,VALID,95.0855,VALID,0.105969,VALID,23.6338,VALID,24,VALID,0,
2008-10-01, 02:16:04,VALID,1008.72,VALID,0,VALID,95.1084,VALID,0.105969,VALID,23.5948,VALID,24,VALID,0,
2008-10-01, 02:17:04,VALID,1008.7,VALID,0,VALID,95.1236,VALID,0.105969,VALID,23.6143,VALID,24,VALID,0,
2008-10-01, 02:18:04,VALID,1008.7,VALID,0,VALID,95.1389,VALID,0.105969,VALID,23.6143,VALID,24,VALID,0.244531,
2008-10-01, 02:19:04,VALID,1008.68,VALID,0,VALID,95.1618,VALID,0.105969,VALID,23.6532,VALID,24,VALID,0.0210938,
2008-10-01, 02:20:04,VALID,1008.69,VALID,0,VALID,95.177,VALID,0.105969,VALID,23.6338,VALID,24,VALID,0,
2008-10-01, 02:21:04,VALID,1008.72,VALID,0,VALID,95.1999,VALID,0,VALID,23.6532,VALID,24,VALID,0,
2008-10-01, 02:22:04,VALID,1008.69,VALID,0,VALID,95.2228,VALID,0,VALID,23.6338,VALID,24,VALID,0,
2008-10-01, 02:23:04,VALID,1008.68,VALID,0,VALID,95.2075,VALID,0,VALID,23.6745,VALID,24,VALID,0,
2008-10-01, 02:24:04,VALID,1008.67,VALID,0,VALID,95.2152,VALID,0,VALID,23.6356,VALID,24,VALID,0,
2008-10-01, 02:25:04,VALID,1008.64,VALID,0,VALID,95.1923,VALID,0,VALID,23.6745,VALID,24,VALID,0,
2008-10-01, 02:26:04,VALID,1008.66,VALID,0,VALID,95.2152,VALID,0,VALID,23.6356,VALID,24,VALID,0.00703125,
2008-10-01, 02:27:04,VALID,1008.63,VALID,0,VALID,95.2304,VALID,0,VALID,23.655,VALID,24,VALID,0.00195313,
2008-10-01, 02:28:04,VALID,1008.64,VALID,0,VALID,95.2304,VALID,0,VALID,23.655,VALID,24,VALID,0.196484,
2008-10-01, 02:29:04,VALID,1008.64,VALID,0,VALID,95.2457,VALID,0,VALID,23.655,VALID,24,VALID,0,
2008-10-01, 02:30:04,VALID,1008.62,VALID,0,VALID,95.2533,VALID,0,VALID,23.6745,VALID,24,VALID,0,
2008-10-01, 02:31:04,VALID,1008.59,VALID,0,VALID,95.2457,VALID,0,VALID,23.6745,VALID,24,VALID,0,
2008-10-01, 02:32:04,VALID,1008.6,VALID,0,VALID,95.2762,VALID,0,VALID,23.6745,VALID,24,VALID,0.142578,
2008-10-01, 02:33:04,VALID,1008.59,VALID,0,VALID,95.2762,VALID,0,VALID,23.6745,VALID,24,VALID,0,
2008-10-01, 02:34:04,VALID,1008.53,VALID,0,VALID,95.2914,VALID,0,VALID,23.6727,VALID,24,VALID,0,
2008-10-01, 02:35:04,VALID,1008.49,VALID,0,VALID,95.299,VALID,0,VALID,23.694,VALID,24,VALID,0,
2008-10-01, 02:36:04,VALID,1008.47,VALID,0,VALID,95.3067,VALID,0,VALID,23.6745,VALID,24,VALID,0.165234,
2008-10-01, 02:37:04,VALID,1008.43,VALID,0,VALID,95.2914,VALID,0.105969,VALID,23.6922,VALID,24,VALID,0.214844,
2008-10-01, 02:38:04,VALID,1008.36,VALID,0,VALID,95.2838,VALID,0,VALID,23.6922,VALID,24,VALID,0.385938,
2008-10-01, 02:39:04,VALID,1008.35,VALID,0,VALID,95.2914,VALID,0.105969,VALID,23.6922,VALID,24,VALID,0.371484,
2008-10-01, 02:40:04,VALID,1008.35,VALID,0,VALID,95.2685,VALID,0.105969,VALID,23.6922,VALID,24,VALID,0.373047,
2008-10-01, 02:41:04,VALID,1008.33,VALID,0,VALID,95.2838,VALID,0.105969,VALID,23.6922,VALID,24,VALID,0.196875,
2008-10-01, 02:42:04,VALID,1008.32,VALID,0,VALID,95.2533,VALID,0.105969,VALID,23.6727,VALID,24,VALID,0.111328,
2008-10-01, 02:43:04,VALID,1008.31,VALID,0,VALID,95.2685,VALID,0.105969,VALID,23.6727,VALID,24,VALID,0,
2008-10-01, 02:44:04,VALID,1008.29,VALID,0,VALID,95.2533,VALID,0.105969,VALID,23.655,VALID,24,VALID,0,
2008-10-01, 02:45:04,VALID,1008.31,VALID,0,VALID,95.2457,VALID,0,VALID,23.6532,VALID,24,VALID,0,
2008-10-01, 02:46:04,VALID,1008.3,VALID,0,VALID,95.2609,VALID,0.105969,VALID,23.6532,VALID,24,VALID,0,
2008-10-01, 02:47:04,VALID,1008.31,VALID,0,VALID,95.2838,VALID,0.105969,VALID,23.6727,VALID,24,VALID,0.129688,
2008-10-01, 02:48:04,VALID,1008.31,VALID,0,VALID,95.2685,VALID,0.105969,VALID,23.6727,VALID,24,VALID,0.218359,
2008-10-01, 02:49:04,VALID,1008.31,VALID,0,VALID,95.2685,VALID,0.105969,VALID,23.6532,VALID,24,VALID,0.222656,
2008-10-01, 02:50:04,VALID,1008.31,VALID,0,VALID,95.2685,VALID,0.105969,VALID,23.6727,VALID,24,VALID,0.173047,
2008-10-01, 02:51:04,VALID,1008.33,VALID,0,VALID,95.2609,VALID,0.105969,VALID,23.6532,VALID,24,VALID,0.0945313,
2008-10-01, 02:52:04,VALID,1008.34,VALID,0,VALID,95.2838,VALID,0,VALID,23.6356,VALID,24,VALID,0.144141,
2008-10-01, 02:53:04,VALID,1008.37,VALID,0,VALID,95.2762,VALID,0,VALID,23.655,VALID,16,VALID,0.172656,
2008-10-01, 02:54:04,VALID,1008.34,VALID,0,VALID,95.3067,VALID,0,VALID,23.6356,VALID,340,VALID,0.14375,
2008-10-01, 02:55:04,VALID,1008.36,VALID,0,VALID,95.3067,VALID,0,VALID,23.6745,VALID,261,VALID,0.5,
2008-10-01, 02:56:04,VALID,1008.35,VALID,0,VALID,95.3219,VALID,0,VALID,23.694,VALID,232,VALID,0.366016,
2008-10-01, 02:57:04,VALID,1008.37,VALID,0,VALID,95.3143,VALID,0,VALID,23.733,VALID,230,VALID,0.463281,
2008-10-01, 02:58:04,VALID,1008.39,VALID,0,VALID,95.3219,VALID,0,VALID,23.7543,VALID,228,VALID,0.446484,
2008-10-01, 02:59:04,VALID,1008.38,VALID,0,VALID,95.3295,VALID,0,VALID,23.7914,VALID,234,VALID,0.21875,
2008-10-01, 03:00:04,VALID,1008.38,VALID,0,VALID,95.3143,VALID,0,VALID,23.7932,VALID,235,VALID,0,
2008-10-01, 03:01:04,VALID,1008.37,VALID,0,VALID,95.3143,VALID,0,VALID,23.8127,VALID,269,VALID,0.341406,
2008-10-01, 03:02:04,VALID,1008.4,VALID,0,VALID,95.2838,VALID,0,VALID,23.8109,VALID,270,VALID,0.0382813,
2008-10-01, 03:03:04,VALID,1008.38,VALID,0,VALID,95.2609,VALID,0,VALID,23.7914,VALID,270,VALID,0.160156,
2008-10-01, 03:04:04,VALID,1008.37,VALID,0,VALID,95.238,VALID,0,VALID,23.772,VALID,270,VALID,0.00546875,
2008-10-01, 03:05:04,VALID,1008.42,VALID,0,VALID,95.2457,VALID,0,VALID,23.7525,VALID,270,VALID,0,
2008-10-01, 03:06:04,VALID,1008.41,VALID,0,VALID,95.2304,VALID,0,VALID,23.7525,VALID,270,VALID,0,
2008-10-01, 03:07:04,VALID,1008.43,VALID,0,VALID,95.2228,VALID,0,VALID,23.7525,VALID,270,VALID,0.00742187,
2008-10-01, 03:08:04,VALID,1008.43,VALID,0,VALID,95.1923,VALID,0,VALID,23.7525,VALID,270,VALID,0.109766,
2008-10-01, 03:09:04,VALID,1008.43,VALID,0,VALID,95.1694,VALID,0,VALID,23.7932,VALID,270,VALID,0.170703,
2008-10-01, 03:10:04,VALID,1008.45,VALID,0,VALID,95.1694,VALID,0,VALID,23.7312,VALID,270,VALID,0,
2008-10-01, 03:11:04,VALID,1008.45,VALID,0,VALID,95.1618,VALID,0,VALID,23.7525,VALID,270,VALID,0.00429688,
2008-10-01, 03:12:04,VALID,1008.48,VALID,0,VALID,95.1618,VALID,0,VALID,23.733,VALID,270,VALID,0,
2008-10-01, 03:13:04,VALID,1008.47,VALID,0,VALID,95.1618,VALID,0,VALID,23.7135,VALID,270,VALID,0,
2008-10-01, 03:14:04,VALID,1008.49,VALID,0,VALID,95.1999,VALID,0,VALID,23.7348,VALID,270,VALID,0,
2008-10-01, 03:15:04,VALID,1008.47,VALID,0,VALID,95.177,VALID,0,VALID,23.7135,VALID,270,VALID,0,
2008-10-01, 03:16:04,VALID,1008.48,VALID,0,VALID,95.1923,VALID,0,VALID,23.7153,VALID,270,VALID,0,
2008-10-01, 03:17:04,VALID,1008.46,VALID,0,VALID,95.1847,VALID,0,VALID,23.694,VALID,270,VALID,0,
2008-10-01, 03:18:04,VALID,1008.47,VALID,0,VALID,95.2152,VALID,0,VALID,23.7135,VALID,270,VALID,0,
2008-10-01, 03:19:04,VALID,1008.46,VALID,0,VALID,95.2152,VALID,0,VALID,23.694,VALID,270,VALID,0.0246094,
2008-10-01, 03:20:04,VALID,1008.46,VALID,0,VALID,95.2152,VALID,0,VALID,23.7135,VALID,270,VALID,0.0113281,
2008-10-01, 03:21:04,VALID,1008.48,VALID,0,VALID,95.2228,VALID,0,VALID,23.6958,VALID,270,VALID,0.271484,
2008-10-01, 03:22:04,VALID,1008.45,VALID,0,VALID,95.2228,VALID,0,VALID,23.6745,VALID,270,VALID,0.167187,
2008-10-01, 03:23:04,VALID,1008.46,VALID,0,VALID,95.2228,VALID,0,VALID,23.7135,VALID,270,VALID,0.177344,
2008-10-01, 03:24:04,VALID,1008.45,VALID,0,VALID,95.2228,VALID,0,VALID,23.655,VALID,273,VALID,0.31875,
2008-10-01, 03:25:04,VALID,1008.48,VALID,0,VALID,95.1923,VALID,0,VALID,23.6356,VALID,350,VALID,0.376953,
2008-10-01, 03:26:04,VALID,1008.48,VALID,0,VALID,95.2152,VALID,0,VALID,23.6161,VALID,350,VALID,0.348437,
2008-10-01, 03:27:04,VALID,1008.45,VALID,0,VALID,95.2152,VALID,0,VALID,23.6161,VALID,350,VALID,0.38125,
2008-10-01, 03:28:04,VALID,1008.49,VALID,0,VALID,95.2228,VALID,0,VALID,23.6179,VALID,350,VALID,0.382031,
2008-10-01, 03:29:04,VALID,1008.47,VALID,0,VALID,95.2228,VALID,0,VALID,23.5966,VALID,9,VALID,0.500391,
2008-10-01, 03:30:04,VALID,1008.46,VALID,0,VALID,95.2533,VALID,0,VALID,23.5771,VALID,40,VALID,0.587891,
2008-10-01, 03:31:04,VALID,1008.45,VALID,0,VALID,95.2609,VALID,0,VALID,23.5576,VALID,46,VALID,0.655859,
2008-10-01, 03:32:04,VALID,1008.43,VALID,0,VALID,95.2609,VALID,0,VALID,23.5984,VALID,58,VALID,0.720312,
2008-10-01, 03:33:04,VALID,1008.41,VALID,0,VALID,95.2838,VALID,0,VALID,23.5984,VALID,80,VALID,0.678125,
2008-10-01, 03:34:04,VALID,1008.39,VALID,0,VALID,95.2685,VALID,0,VALID,23.5966,VALID,82,VALID,0.510156,
2008-10-01, 03:35:04,VALID,1008.39,VALID,0,VALID,95.2762,VALID,0,VALID,23.5966,VALID,82,VALID,0.151172,
2008-10-01, 03:36:04,VALID,1008.43,VALID,0,VALID,95.2838,VALID,0,VALID,23.5966,VALID,82,VALID,0.101563,
2008-10-01, 03:37:04,VALID,1008.44,VALID,0,VALID,95.3143,VALID,0.105969,VALID,23.5948,VALID,82,VALID,0,
2008-10-01, 03:38:04,VALID,1008.47,VALID,0,VALID,95.3372,VALID,0.105969,VALID,23.593,VALID,82,VALID,0.198828,
2008-10-01, 03:39:04,VALID,1008.46,VALID,0,VALID,95.3219,VALID,0.105969,VALID,23.6143,VALID,93,VALID,0.408203,
2008-10-01, 03:40:04,VALID,1008.46,VALID,0,VALID,95.3524,VALID,0.105969,VALID,23.6143,VALID,149,VALID,0.486719,
2008-10-01, 03:41:04,VALID,1008.47,VALID,0,VALID,95.3524,VALID,0.105969,VALID,23.6532,VALID,186,VALID,0.553516,
2008-10-01, 03:42:04,VALID,1008.43,VALID,0,VALID,95.3448,VALID,0.105969,VALID,23.6338,VALID,196,VALID,0.660547,
2008-10-01, 03:43:04,VALID,1008.42,VALID,0,VALID,95.3753,VALID,0.105969,VALID,23.632,VALID,197,VALID,0.488672,
2008-10-01, 03:44:04,VALID,1008.43,VALID,0,VALID,95.3829,VALID,0.105969,VALID,23.6709,VALID,197,VALID,0.349609,
2008-10-01, 03:45:04,VALID,1008.4,VALID,0,VALID,95.36,VALID,0,VALID,23.6515,VALID,197,VALID,0.269922,